Satellite-Ground Cal/Val Site Overpasses Predictions

Prediction of Satellite NPP Overpassing Cal/Val Site: Antarctic Dome C

Ground Cal/Val Site Location: Latitude: -75.10, Longitude: 123.35; Satellite-Ground Site NADIR distance within 100 km.

Table of predicted overpasses for the next 14.0 days since TLE Epoch: 10/27/2023
Interval Starting Time Ending Time Minimum Distance Time Minimum Distance (km)
1 10/29/2023 14:55:33 10/29/2023 14:56:02 10/29/2023 14:55:48 19.92
2 10/30/2023 14:36:52 10/30/2023 14:37:06 10/30/2023 14:36:59 87.18
3 10/31/2023 07:38:24 10/31/2023 07:38:51 10/31/2023 07:38:38 37.51
4 11/01/2023 07:19:39 11/01/2023 07:19:59 11/01/2023 07:19:49 72.53
5 11/03/2023 15:01:54 11/03/2023 15:02:18 11/03/2023 15:02:06 57.22
6 11/04/2023 14:43:04 11/04/2023 14:43:29 11/04/2023 14:43:17 51.98
7 11/05/2023 07:44:46 11/05/2023 07:45:06 11/05/2023 07:44:56 72.99
8 11/06/2023 07:25:53 11/06/2023 07:26:21 11/06/2023 07:26:07 34.83
9 11/08/2023 15:08:20 11/08/2023 15:08:28 11/08/2023 15:08:24 95.28
